Retour au catalogue

DELTA 1 DEB

ActifSSO
NORAD 7155·DEBRIS·🇺🇸 United States

Lancé Nov 6, 1973 depuis Vandenberg Space Force Base

Loading…

Prochains Passages (prochaines 24 heures)

TLE

FraisSource: Space-Track

Époque: Sep 14, 2026, 05:53 UTC

1 07155U 73086DU  26257.24543711  .00000113  00000-0  11568-2 0  9999
2 07155 102.3630 171.4257 0129418 353.9542 159.7271 12.40427388386916

Suivez DELTA 1 DEB en temps réel avec AllMySat

Download on the App Store